Weather in Glinyany

Ukraine / Lviv District     49˚49′50″N   24˚30′49″E
temp.,
°C
wind,
m/s
gust,
m/s
humid.,
%
clouds,
%
prec.,
mm/h
press.,
hPa
HPBL,
m
29 november, sun
sun2923:00−1˚nw2595100 0.3 1020325
02:00−2˚wnw2497100 0.4 1020237
05:00−2˚w2397100 0.4 1020220
08:00−2˚wsw2497100 0.8 1020231
11:00−1˚w3487100 0.1 1021452
14:00w2286100 0.3 1021435
17:00−2˚w229196 0.1 102125
20:00−3˚wsw229475 0.1 102239
30 november, mon
mon3023:00−2˚wsw239686 0.1 1023146
02:00−3˚wsw229679 0.1 102451
05:00−3˚w249762 0.1 1024158
08:00−3˚w139473 0.1 1026160
11:00−1˚w348097 0.1 1027580
14:00−1˚wnw237998 0.1 1027560
17:00−1˚w2378100 0.0 1028397
20:00−2˚sw238094 0.0 1029210
1 december, tue
tue123:00−3˚s228287 0.0 102951
02:00−4˚s228646 0.0 102934
05:00−4˚sse22870 0.0 102843
08:00−4˚se24880 0.0 1028126
11:00−2˚sse47790 0.0 1028434
14:00se47730 0.0 1027454
17:00−3˚se39840 0.0 1026202
20:00−4˚se39840 0.0 1028261
2 december, wed
wed223:00−4˚ese49830 0.0 1027264
02:00−4˚ese37900 0.0 1027181
05:00−4˚ese36940 0.0 1026153
08:00−5˚ese26964 0.0 1026155
11:00−1˚se478984 0.0 1026536
14:00se378592 0.0 1024585
17:00−1˚e259399 0.0 1025185
20:00−1˚ese379495 0.0 1024259
3 december, thu
thu323:00−2˚se269388 0.0 1024182
02:00−2˚se259393 0.0 1023214
05:00−3˚se369564 0.0 1022169
08:00−3˚se399537 0.0 1022316
11:00sse698486 0.0 1021517
14:00se598286 0.0 1020493
17:00−1˚se512877 0.0 1019405
20:00−1˚se614877 0.0 1018406